Wind_Speed
7 7 8 9 10 11 11 12 13 14 15 16 16 17 18 18 18 18 19 19 19 20 20 21 22 21 22 20 17 20 20 18 17 16 16 17 18 19 21 22 23 29 26 27 25 25 25
11 12 13 14 13 14 15 16 16 18 19 20 20 20 21 21 21 22 23 23 23 23 24 24 25 25 25 23 21 19 19 19 20 20 20 20 19 20 22 23 25 29 28 27 27 26 28
14 15 16 17 19 19 19 20 20 20 22 23 24 24 26 26 25 25 26 28 29 28 28 28 27 28 29 24 25 25 23 22 22 23 23 23 22 21 23 23 26 29 31 32 32 30 32
14 15 16 17 19 21 22 23 24 25 26 26 27 27 29 28 29 28 29 31 32 31 31 31 32 32 32 29 27 27 27 26 26 25 22 21 22 23 26 27 27 27 29 33 30 27 27
18 20 21 22 23 25 27 28 29 29 30 31 32 33 34 35 35 34 32 32 33 34 34 32 32 31 34 30 27 25 23 21 19 18 18 18 19 22 26 28 28 29 33 36 34 30 30
22 23 25 26 27 28 29 31 33 33 34 34 35 36 37 38 40 40 38 36 36 36 37 37 35 30 24 26 27 23 18 18 19 20 21 21 24 29 32 29 29 31 30 31 31 29 31
24 25 26 27 29 31 32 33 34 35 36 38 38 40 42 42 41 39 41 40 38 38 37 34 33 36 34 35 34 32 29 33 34 32 31 31 31 37 33 31 32 33 37 40 39 36 39
27 28 29 30 31 32 34 36 38 42 45 46 44 40 40 42 40 39 39 38 39 40 43 37 38 39 38 39 40 40 38 35 36 36 34 34 40 35 32 30 31 33 36 40 41 38 34
29 31 33 35 36 36 37 40 46 49 47 43 40 37 35 35 37 35 34 33 33 35 39 39 38 34 30 31 33 35 33 33 33 34 34 34 34 18 13 16 22 26 31 34 36 33 36
31 33 35 36 39 41 45 49 47 41 38 37 35 33 31 29 30 30 29 30 28 30 28 19 13 10 7 8 11 15 18 22 22 20 20 20 19 21 23 23 22 28 22 27 27 24 21
33 35 38 41 45 48 49 48 43 39 35 33 32 31 29 27 25 26 25 24 22 21 6 7 7 10 10 8 6 5 5 8 11 14 14 11 14 17 19 22 22 25 19 20 22 25 27
37 41 44 46 47 47 45 41 39 36 34 32 31 30 28 27 25 22 20 18 15 4 8 5 8 8 8 7 6 7 8 11 13 17 21 22 20 20 19 19 23 25 25 25 24 23 10
43 46 47 46 43 41 39 38 37 35 34 32 32 32 30 27 22 19 16 13 7 8 5 6 12 14 16 14 14 14 16 17 14 13 15 21 25 27 24 25 24 24 21 5 4 3 7
47 47 45 39 38 38 37 37 37 37 36 33 32 32 30 27 22 18 13 11 13 11 15 14 14 15 17 18 21 20 17 18 18 17 23 16 13 11 7 7 7 9 8 6 6 3 4
47 41 39 34 34 35 35 36 36 37 37 36 33 31 29 26 22 18 14 16 8 11 15 22 24 25 26 23 21 17 18 18 15 14 9 7 7 11 15 10 9 5 9 9 16 23 7
41 36 34 34 34 35 36 36 36 37 38 38 35 31 28 25 20 17 17 24 18 18 23 20 20 14 14 11 12 7 9 7 7 10 11 9 17 18 25 27 19 12 10 10 10 4 8
35 35 35 33 34 35 36 36 37 37 38 39 35 29 26 23 20 18 22 25 24 21 23 22 19 17 15 15 19 23 15 16 21 21 19 18 17 18 16 15 18 23 27 24 24 24 9
35 35 36 36 36 36 37 38 37 36 37 38 37 28 24 25 24 20 24 25 21 20 19 20 24 25 26 25 26 24 22 18 13 12 21 23 18 22 22 22 16 20 27 24 10 11 12
38 39 39 39 38 39 38 38 37 36 37 38 35 34 28 25 23 22 21 24 25 26 23 21 15 12 12 13 10 12 16 15 16 19 9 10 7 10 10 5 3 5 10 12 21 30 29
40 41 42 42 42 42 42 41 40 36 34 35 32 24 23 26 27 25 23 26 22 21 17 18 22 20 22 26 25 19 14 13 16 18 20 18 19 18 15 21 24 31 34 36 31 22 29
43 45 45 46 45 45 43 43 41 38 34 33 29 28 28 22 19 16 16 19 18 19 23 21 22 21 21 23 19 21 22 23 22 18 15 16 24 27 33 32 29 31 33 33 33 34 26
48 49 51 51 50 48 44 41 35 37 32 31 29 27 28 33 27 27 27 30 26 21 23 26 26 21 19 18 19 15 16 18 19 19 20 22 26 24 31 32 29 24 27 29 31 30 30
53 53 54 51 46 44 39 29 27 27 26 33 29 28 26 32 33 33 34 31 28 24 24 20 17 22 24 22 27 25 25 27 27 24 24 26 24 21 25 23 18 17 21 18 15 17 21
52 52 49 45 41 38 35 28 28 29 31 32 31 28 27 34 31 34 32 27 23 23 26 25 24 26 27 27 28 28 27 27 28 28 28 31 27 23 20 21 6 10 12 17 15 16 17
46 46 44 36 31 30 27 25 28 31 32 35 34 34 34 37 39 37 35 36 29 29 30 30 24 24 23 24 25 25 23 22 18 20 27 31 27 19 8 11 7 13 14 9 9 13 15
49 46 43 38 31 29 28 24 24 31 36 40 41 35 35 35 42 35 42 37 36 32 32 28 22 23 21 22 23 18 12 12 7 7 11 14 16 21 12 4 5 7 10 9 10 10 5
45 40 35 33 34 33 29 28 28 32 32 33 38 37 38 39 39 34 37 34 36 34 33 31 24 23 23 26 26 18 15 11 8 10 9 14 15 27 26 7 8 14 13 8 5 4 15
36 33 32 33 33 31 29 29 31 31 31 34 32 34 35 35 32 32 33 35 33 31 23 29 22 22 18 17 20 21 20 21 14 14 8 6 4 8 9 9 7 12 8 6 7 12 19
31 30 30 29 33 28 27 29 28 26 22 25 26 29 28 34 32 35 34 32 32 34 35 31 20 24 19 16 18 17 16 11 16 8 12 8 11 6 8 7 11 15 17 16 16 18 19
Wind_Direction
322 320 316 317 312 305 302 301 301 301 300 299 299 299 297 294 292 291 290 289 287 286 285 284 283 282 282 280 279 273 274 272 269 266 266 265 260 258 262 266 265 264 270 268 269 269 268
307 307 307 309 309 309 307 306 307 308 307 307 305 302 299 298 296 294 296 295 293 291 288 286 287 287 285 287 283 276 272 270 267 267 264 261 259 257 261 260 261 265 268 269 266 265 265
319 316 317 315 314 314 312 310 306 304 305 304 303 303 299 296 294 294 294 294 293 291 289 287 286 284 280 286 280 278 273 268 266 266 267 265 260 257 258 265 261 263 267 268 268 271 271
333 328 324 322 319 317 315 313 312 311 311 310 308 304 298 294 293 291 291 291 290 290 288 287 285 284 284 283 281 278 271 268 267 267 260 258 257 257 260 262 263 269 272 274 278 274 275
329 326 323 320 318 316 315 313 311 310 309 308 306 304 302 301 298 296 294 292 291 291 291 289 286 284 286 283 281 275 269 262 259 256 256 257 259 260 261 261 265 266 266 272 283 286 285
320 319 318 317 316 314 313 312 312 311 310 308 308 306 303 300 298 297 296 294 293 291 290 290 289 287 277 274 269 265 259 262 266 263 253 262 269 266 262 257 252 269 270 282 289 292 291
313 313 312 311 311 312 312 312 310 309 307 306 305 303 301 300 298 297 296 296 296 293 287 287 289 284 279 273 268 264 259 267 268 265 261 265 266 262 272 277 274 275 275 281 278 284 285
310 310 309 309 308 308 309 310 310 308 304 301 299 295 291 296 297 297 297 299 301 298 289 284 282 278 275 271 268 268 267 264 264 266 265 262 264 274 273 266 268 268 270 272 280 285 287
310 311 311 310 309 307 305 305 307 308 307 306 304 302 298 296 297 298 299 300 301 302 304 295 290 281 273 266 265 262 265 265 263 261 263 263 265 269 250 248 264 270 269 275 284 292 288
310 309 309 308 307 307 308 310 311 311 311 311 310 308 305 303 301 299 300 302 304 310 309 300 283 287 268 276 270 268 258 253 254 261 255 262 262 258 263 270 276 275 289 285 285 291 288
310 311 312 312 312 311 311 313 313 315 316 316 314 313 313 312 308 306 306 303 303 318 328 295 273 269 289 288 285 289 287 267 262 265 261 262 280 281 279 283 287 291 293 288 284 282 288
313 313 313 313 313 312 312 312 313 315 316 316 314 314 313 310 310 308 307 301 302 298 250 260 259 262 269 292 288 283 291 290 295 285 279 284 280 276 282 282 282 281 281 283 288 278 260
313 313 310 310 311 311 310 310 312 313 313 315 315 312 310 310 308 305 298 285 268 211 264 252 245 252 263 274 277 281 285 284 281 294 289 289 285 284 279 273 267 270 273 303 285 185 243
313 312 308 309 309 309 310 311 312 312 311 315 314 310 310 310 307 299 279 243 230 243 227 250 250 254 261 268 281 281 276 277 280 272 280 288 292 275 224 246 275 281 257 204 261 237 279
309 307 305 305 305 306 307 309 310 312 314 315 314 314 314 314 308 295 267 222 262 250 252 251 265 278 274 268 262 264 265 265 256 256 244 279 259 238 215 275 299 241 248 280 265 277 276
305 302 302 306 308 309 311 312 312 312 311 311 313 314 314 311 303 287 259 247 246 259 263 270 273 265 259 244 241 242 240 229 233 242 243 265 282 269 259 276 276 263 273 280 272 281 260
305 304 304 306 307 307 308 309 308 308 308 307 307 309 307 303 296 279 257 264 270 268 269 269 265 252 250 261 257 269 271 262 262 265 261 271 278 265 264 249 261 274 277 265 264 247 263
306 304 304 305 305 305 304 303 303 304 304 303 302 303 299 294 287 269 269 274 275 272 262 266 266 264 268 275 277 273 262 262 260 270 296 287 282 279 279 286 283 255 261 262 250 267 260
305 304 303 302 300 300 300 300 303 303 301 298 295 296 292 282 270 275 275 267 268 272 271 266 261 259 261 276 264 253 243 223 253 280 256 265 271 304 299 291 220 293 254 262 299 300 279
302 301 300 299 299 299 299 299 297 295 294 290 290 289 284 285 279 274 272 271 265 264 270 259 264 263 269 266 258 266 259 271 273 265 271 277 266 261 261 273 287 282 278 281 295 287 288
299 299 298 296 295 294 294 292 291 291 289 285 282 281 281 272 274 275 262 267 267 265 274 268 272 274 275 273 267 262 276 285 277 268 269 275 271 276 278 282 283 281 281 282 280 281 273
299 297 295 293 293 292 293 290 289 290 288 277 274 273 275 279 276 271 263 268 272 282 276 274 272 263 251 271 268 279 283 271 282 279 278 275 268 273 276 284 289 284 285 287 281 278 272
294 293 293 293 293 289 286 278 273 279 275 275 278 272 267 267 272 269 270 272 276 281 277 272 273 276 280 281 290 295 289 283 283 283 280 270 264 271 274 288 287 284 279 269 272 283 292
298 296 294 294 292 290 287 272 269 266 271 273 279 279 264 267 271 271 277 272 267 261 275 271 275 281 287 286 284 283 286 285 276 267 262 259 256 260 269 281 229 268 286 285 285 290 288
302 301 299 295 291 290 290 278 265 261 266 267 272 267 266 266 262 261 274 272 270 268 270 270 274 279 283 283 280 283 284 290 286 270 258 253 248 235 225 205 261 272 262 268 292 301 297
304 300 298 289 282 280 281 278 273 265 261 265 261 266 260 264 272 267 261 276 275 270 273 260 269 275 276 271 270 258 240 259 254 270 259 252 230 219 214 228 226 267 235 262 301 277 259
300 299 297 297 285 272 267 264 269 269 263 264 265 268 258 255 272 274 263 260 273 277 279 268 271 281 276 268 252 239 235 243 248 248 258 215 211 222 239 250 262 258 248 270 209 284 303
299 293 292 295 302 292 270 266 268 269 268 267 269 263 272 256 267 272 266 271 272 257 279 294 287 283 259 247 267 262 259 255 238 233 216 195 228 229 232 218 239 258 257 265 282 300 315
298 293 293 297 303 297 274 268 273 281 283 274 275 278 267 267 264 274 276 264 265 269 272 269 253 274 272 258 255 274 227 208 221 225 240 236 231 233 224 232 252 270 289 294 295 305 307
Height
3168 3166 3164 3163 3161 3159 3158 3156 3155 3153 3151 3149 3147 3145 3143 3141 3139 3137 3134 3132 3130 3128 3125 3122 3120 3118 3116 3116 3115 3113 3111 3110 3109 3108 3107 3107 3105 3104 3103 3103 3102 3099 3100 3099 3099 3098 3097
3168 3166 3164 3163 3161 3158 3156 3154 3152 3150 3148 3146 3143 3141 3138 3136 3134 3132 3129 3127 3125 3123 3120 3118 3115 3113 3111 3111 3109 3108 3107 3105 3105 3104 3103 3103 3102 3101 3099 3098 3098 3095 3095 3094 3093 3093 3091
3168 3166 3165 3163 3160 3158 3155 3153 3151 3148 3146 3143 3140 3138 3135 3132 3130 3128 3126 3122 3120 3118 3115 3113 3110 3107 3105 3108 3104 3103 3102 3101 3100 3099 3099 3098 3098 3098 3095 3095 3093 3091 3090 3088 3087 3088 3086
3167 3165 3163 3161 3159 3157 3154 3151 3149 3146 3144 3141 3138 3135 3131 3128 3125 3123 3121 3118 3115 3113 3110 3108 3105 3103 3100 3099 3098 3097 3095 3095 3094 3093 3093 3093 3093 3093 3091 3091 3089 3088 3086 3082 3082 3083 3081
3166 3164 3161 3159 3156 3153 3151 3148 3145 3142 3140 3137 3134 3131 3127 3123 3120 3117 3116 3112 3110 3107 3104 3102 3100 3098 3095 3093 3092 3090 3090 3089 3089 3089 3088 3089 3089 3088 3086 3086 3086 3083 3078 3076 3077 3078 3077
3164 3161 3159 3156 3153 3150 3147 3144 3141 3138 3135 3132 3128 3124 3120 3117 3114 3111 3109 3106 3103 3100 3097 3095 3093 3094 3089 3089 3086 3085 3085 3085 3085 3084 3084 3084 3084 3082 3080 3081 3078 3078 3074 3073 3072 3074 3070
3161 3158 3154 3151 3148 3145 3142 3139 3136 3133 3130 3126 3122 3118 3113 3109 3105 3102 3101 3099 3099 3095 3090 3089 3088 3084 3084 3083 3080 3080 3080 3079 3079 3079 3077 3077 3075 3070 3075 3076 3075 3074 3071 3068 3067 3068 3064
3157 3153 3150 3146 3143 3139 3136 3132 3129 3125 3122 3117 3113 3109 3105 3100 3097 3095 3092 3090 3087 3084 3078 3081 3078 3075 3073 3070 3069 3070 3072 3074 3072 3070 3070 3070 3064 3068 3068 3069 3069 3068 3064 3060 3060 3061 3058
3152 3149 3145 3142 3137 3134 3130 3126 3122 3116 3111 3106 3101 3098 3095 3093 3090 3088 3086 3084 3081 3077 3071 3070 3064 3062 3062 3062 3059 3061 3063 3061 3062 3062 3063 3062 3063 3063 3062 3063 3062 3061 3059 3057 3056 3055 3050
3146 3143 3140 3136 3132 3127 3122 3117 3112 3107 3103 3099 3094 3090 3087 3086 3084 3080 3079 3077 3076 3073 3066 3060 3057 3055 3055 3055 3055 3054 3055 3057 3056 3056 3055 3055 3056 3056 3056 3056 3057 3054 3055 3054 3052 3051 3048
3140 3137 3133 3128 3123 3119 3114 3108 3103 3099 3096 3093 3089 3085 3083 3078 3078 3075 3075 3073 3072 3072 3069 3058 3055 3054 3053 3056 3055 3054 3054 3054 3054 3056 3054 3054 3053 3053 3053 3054 3053 3050 3048 3047 3046 3044 3043
3135 3130 3125 3120 3115 3110 3105 3101 3097 3093 3089 3088 3083 3079 3078 3074 3072 3070 3069 3068 3069 3072 3061 3055 3052 3052 3052 3052 3052 3052 3052 3053 3052 3051 3050 3049 3049 3049 3049 3049 3048 3046 3045 3043 3041 3039 3034
3129 3123 3118 3112 3106 3102 3098 3095 3090 3087 3084 3082 3078 3074 3072 3069 3067 3065 3064 3065 3069 3064 3055 3050 3049 3049 3048 3048 3048 3048 3048 3048 3050 3048 3044 3043 3044 3042 3043 3042 3042 3041 3041 3040 3037 3036 3026
3121 3116 3112 3106 3101 3097 3094 3090 3085 3081 3077 3076 3073 3069 3065 3063 3061 3060 3060 3063 3060 3049 3048 3044 3045 3045 3045 3045 3043 3041 3040 3041 3042 3043 3040 3038 3035 3036 3035 3037 3038 3038 3038 3038 3033 3029 3024
3114 3108 3106 3099 3095 3091 3087 3084 3080 3075 3070 3069 3068 3064 3061 3059 3058 3055 3056 3056 3051 3047 3044 3042 3041 3040 3038 3038 3041 3037 3035 3035 3034 3035 3037 3034 3029 3030 3031 3031 3034 3032 3033 3033 3029 3024 3021
3106 3103 3098 3094 3090 3086 3082 3078 3073 3069 3065 3061 3061 3059 3056 3054 3051 3051 3049 3045 3044 3042 3041 3040 3037 3038 3034 3034 3035 3034 3032 3031 3031 3030 3029 3030 3027 3026 3029 3028 3030 3030 3029 3030 3029 3025 3014
3100 3096 3093 3087 3084 3079 3075 3071 3067 3063 3058 3054 3053 3053 3050 3047 3046 3045 3041 3037 3037 3038 3037 3036 3032 3032 3031 3031 3032 3031 3029 3029 3027 3026 3025 3025 3025 3021 3022 3023 3026 3026 3023 3023 3021 3019 3011
3093 3089 3085 3081 3077 3073 3069 3065 3060 3056 3051 3047 3043 3046 3042 3040 3041 3037 3034 3033 3033 3031 3032 3029 3026 3026 3025 3024 3021 3023 3021 3023 3021 3021 3021 3021 3018 3015 3015 3017 3018 3018 3016 3017 3015 3011 3007
3085 3081 3076 3071 3067 3063 3060 3057 3053 3049 3044 3039 3036 3033 3035 3033 3030 3028 3028 3027 3026 3024 3025 3023 3022 3020 3020 3021 3021 3015 3014 3014 3014 3016 3016 3016 3014 3012 3009 3012 3011 3011 3010 3010 3009 3007 3000
3076 3072 3067 3063 3059 3055 3051 3047 3044 3042 3038 3032 3029 3025 3025 3025 3024 3022 3021 3018 3019 3018 3017 3018 3016 3017 3015 3013 3016 3011 3009 3010 3010 3010 3009 3008 3007 3010 3008 3009 3011 3008 3006 3005 3005 3001 2994
3066 3061 3056 3052 3049 3044 3041 3037 3035 3032 3030 3025 3022 3018 3017 3018 3017 3018 3018 3015 3015 3015 3014 3012 3010 3011 3010 3008 3006 3006 3006 3004 3003 3004 3003 3003 3000 3002 3000 3000 3000 2998 2996 2996 2995 2993 2993
3054 3050 3045 3041 3037 3033 3030 3027 3024 3022 3019 3016 3016 3013 3011 3007 3009 3009 3008 3005 3006 3007 3008 3006 3003 3004 3003 3001 3001 2999 3000 2998 2997 2999 2998 2997 2994 2994 2989 2992 2992 2988 2987 2985 2984 2982 2980
3042 3037 3031 3027 3023 3019 3019 3018 3017 3016 3012 3006 3007 3005 3003 2999 2999 3001 2999 3000 2999 3001 2998 2998 2999 2997 2996 2997 2994 2993 2992 2992 2991 2990 2990 2990 2989 2988 2982 2985 2985 2982 2977 2976 2976 2975 2974
3028 3021 3017 3013 3010 3008 3007 3006 3007 3007 3004 3000 3000 2999 2997 2991 2992 2991 2991 2993 2993 2993 2992 2993 2992 2990 2991 2989 2987 2986 2984 2983 2982 2980 2981 2980 2982 2983 2980 2981 2979 2973 2971 2970 2970 2969 2968
3013 3007 3003 3000 2999 2998 2996 2997 2996 2997 2997 2993 2991 2990 2986 2980 2984 2983 2985 2984 2985 2986 2985 2985 2986 2985 2983 2982 2981 2979 2977 2976 2973 2970 2970 2971 2974 2975 2975 2972 2970 2968 2966 2966 2965 2965 2962
3000 2996 2992 2989 2988 2987 2987 2987 2986 2986 2986 2983 2982 2983 2978 2975 2971 2978 2978 2978 2977 2977 2976 2977 2978 2978 2978 2976 2976 2972 2970 2970 2969 2966 2965 2965 2965 2969 2967 2966 2967 2962 2961 2961 2960 2959 2958
2988 2985 2982 2980 2978 2977 2976 2976 2975 2974 2974 2973 2972 2974 2969 2965 2968 2969 2970 2971 2970 2970 2969 2970 2971 2970 2970 2967 2968 2964 2964 2964 2964 2961 2960 2961 2961 2962 2962 2960 2959 2957 2958 2958 2959 2961 2955
2979 2976 2974 2971 2969 2968 2968 2968 2966 2965 2964 2964 2963 2964 2964 2957 2960 2960 2963 2962 2963 2962 2960 2964 2965 2961 2962 2962 2962 2960 2957 2957 2957 2957 2956 2957 2958 2958 2958 2957 2957 2953 2955 2956 2954 2951 2949
2970 2968 2966 2963 2961 2958 2957 2958 2958 2957 2956 2957 2956 2956 2955 2955 2954 2954 2954 2955 2957 2957 2957 2956 2957 2957 2958 2956 2956 2954 2950 2948 2949 2951 2951 2953 2954 2953 2955 2952 2949 2948 2948 2948 2947 2946 2945